Theta_e
343 343 342 340 340 340 340 340 340 341 340 340 340 340 341 340 338 338 339 339 336 332 332 332 331 331 330 328 328 328 330 332 333 334 334 336 338 337 336 333 333 332 331 330 327 327 334 335 333 333 332 331 330 328 328 327 328 326 326 325 323 324 325 325 324 322 323 326 326 325 325 324 323 324 326 327 325 324 325 327 330 332 332 331 331
344 343 342 342 341 341 341 340 339 339 340 340 340 339 340 340 340 340 339 339 336 332 332 332 331 331 331 329 328 327 328 330 332 333 334 335 336 337 336 334 333 332 332 332 329 327 332 335 334 333 332 332 331 329 328 328 328 328 327 325 322 323 325 326 325 323 325 326 326 326 324 323 322 324 325 325 324 326 329 331 332 332 332 331 331
345 344 344 344 342 342 342 341 340 339 339 339 339 340 340 340 340 340 339 337 335 334 334 334 333 332 332 331 331 328 327 328 330 333 335 334 334 337 337 335 333 332 331 333 331 327 330 335 335 333 333 332 331 331 330 328 328 328 328 325 323 325 326 325 324 323 324 325 326 325 322 320 321 322 324 326 329 331 331 332 332 332 332 331 331
345 344 344 345 343 342 343 341 341 340 340 339 338 339 340 340 339 339 338 337 336 336 336 336 335 333 331 331 332 331 329 328 329 331 333 333 334 337 337 335 335 333 331 332 333 329 327 332 336 335 334 333 333 331 330 329 328 329 328 326 324 326 326 324 323 325 325 326 326 323 319 319 321 323 326 329 332 332 332 333 332 332 331 331 331
344 344 343 344 344 343 343 342 341 341 340 339 338 339 340 339 338 338 338 337 337 336 337 337 338 337 334 333 333 331 330 330 330 330 333 334 333 335 339 338 336 335 332 331 332 331 327 329 335 336 334 333 333 332 332 331 329 329 329 327 326 325 325 323 325 326 327 327 324 319 318 320 324 326 329 331 332 332 333 333 333 332 331 330 330
344 343 343 344 344 343 343 342 342 342 341 340 339 340 341 341 341 340 338 338 339 338 338 339 339 339 337 336 335 332 330 331 331 331 331 332 332 333 336 340 339 337 334 331 331 332 328 327 332 337 336 334 334 333 333 332 330 330 328 328 328 326 323 323 326 326 328 326 318 315 319 323 326 329 331 332 333 333 333 333 332 332 331 330 330
345 344 344 344 343 343 343 342 343 343 341 340 340 341 341 342 342 341 340 339 339 339 339 338 338 338 338 336 336 333 331 331 332 332 330 331 333 333 334 339 341 339 337 333 331 331 330 326 328 334 336 335 334 333 333 333 332 331 330 329 329 326 324 326 327 327 328 322 312 314 321 325 328 330 331 333 333 333 333 333 333 332 332 331 331
345 345 344 345 343 343 343 343 343 343 342 341 341 341 340 341 341 340 340 340 339 339 338 337 336 337 337 336 336 335 332 332 332 331 332 331 331 332 334 337 339 339 338 336 332 330 331 329 327 331 334 335 334 333 334 334 333 333 332 331 331 329 329 329 328 329 327 319 311 316 322 326 329 331 331 332 333 333 333 333 333 333 332 331 331
345 345 345 344 344 344 343 344 344 343 341 340 340 340 340 340 341 339 339 340 339 339 339 338 337 336 336 336 336 336 335 334 331 331 332 332 331 331 333 334 337 340 340 340 338 333 331 330 328 328 330 334 334 333 334 335 335 334 334 333 332 332 332 331 329 328 326 318 314 317 322 327 330 330 331 332 333 333 334 334 333 333 332 332 330
345 345 345 345 344 344 344 344 344 343 341 341 340 340 340 340 339 338 338 339 338 337 338 339 339 338 337 336 336 336 336 335 332 331 332 332 331 332 332 332 335 339 342 342 341 338 335 333 330 327 327 330 333 332 333 335 335 335 335 334 333 333 333 332 331 329 326 320 317 318 323 327 329 329 330 333 334 333 334 333 333 333 332 331 330
345 345 345 345 345 344 343 343 343 343 343 342 342 340 340 340 339 339 338 338 339 337 337 339 340 339 338 338 337 336 336 336 334 334 333 332 331 332 332 332 334 337 341 342 342 341 340 338 333 329 327 327 330 330 332 335 335 335 335 334 334 334 333 333 332 330 326 323 320 319 322 325 327 329 331 333 334 333 333 332 332 332 332 332 330
346 346 345 345 344 344 343 342 342 343 342 342 343 341 341 340 340 340 339 338 339 338 337 339 339 338 337 337 338 337 337 336 336 336 335 333 333 332 331 332 333 334 337 340 342 342 341 341 336 332 330 327 327 328 330 334 335 335 335 334 334 334 333 333 332 330 325 323 324 323 323 323 325 329 332 333 333 333 333 332 332 332 332 331 329
345 345 344 344 344 344 343 343 343 342 342 342 341 341 341 341 340 340 339 337 337 338 339 339 338 337 337 338 338 337 336 336 337 337 337 335 334 334 332 332 333 331 334 338 342 341 341 342 338 335 333 330 329 327 328 332 333 334 334 334 334 335 334 333 334 331 325 323 326 326 325 324 325 330 332 333 333 333 332 331 331 331 332 330 329
343 342 343 342 342 342 343 343 343 342 342 341 341 340 340 341 341 339 338 335 334 337 339 338 337 337 338 338 338 337 335 336 337 337 338 337 336 336 334 333 333 333 335 338 341 342 342 341 338 337 336 335 334 332 329 328 330 331 332 333 334 335 335 334 334 332 329 327 326 327 327 324 326 331 333 334 333 332 330 330 331 332 332 330 329
340 340 340 340 340 340 341 341 342 342 341 341 341 341 340 340 340 339 338 335 334 336 338 338 338 338 338 338 338 339 338 337 337 336 337 337 337 337 336 334 333 333 334 336 339 341 342 340 338 338 338 337 337 337 334 330 329 328 329 331 331 333 335 335 334 332 332 330 327 328 327 324 328 332 333 334 333 330 328 329 330 331 331 331 328
337 337 337 338 339 339 339 339 340 341 341 341 340 341 341 340 340 339 338 337 336 337 338 339 339 338 338 339 340 340 340 339 338 337 336 337 337 338 337 335 333 333 333 334 335 339 341 341 338 337 339 339 338 338 338 335 332 330 327 328 329 330 334 336 334 332 333 331 329 329 327 326 330 333 334 334 332 330 327 328 330 331 331 331 328
331 332 334 335 336 336 337 338 338 339 340 341 341 341 341 341 340 339 338 338 338 338 338 338 339 339 338 340 340 340 341 339 339 339 338 338 338 338 338 335 333 332 333 334 333 335 338 339 338 337 338 339 337 337 338 338 337 334 331 328 328 328 331 335 334 334 333 331 329 329 327 329 333 334 335 334 332 330 327 327 330 331 331 330 326
323 325 327 328 328 328 331 334 335 336 338 339 339 340 341 340 340 340 339 339 338 337 338 338 338 338 338 338 338 339 340 339 338 339 338 336 336 336 336 335 334 333 333 333 334 334 336 337 337 337 338 337 336 336 337 338 337 337 335 333 331 328 329 332 334 334 334 332 329 327 327 331 334 335 334 334 333 328 324 327 331 331 331 329 326
316 316 315 317 317 318 321 324 326 328 331 334 336 338 339 339 339 338 339 339 337 335 337 338 337 338 337 337 338 338 339 339 338 339 338 337 336 336 336 337 336 334 333 334 334 334 334 336 338 338 337 337 337 336 336 337 337 337 337 336 335 332 328 329 332 333 333 333 332 329 329 332 333 335 334 335 331 321 321 328 331 331 330 329 325
314 313 312 312 312 312 313 315 315 317 320 324 329 332 334 336 337 338 338 338 338 336 337 337 337 337 335 335 337 337 337 337 337 336 336 337 337 337 338 337 336 335 335 336 336 335 333 335 337 338 338 337 337 337 337 337 337 336 337 337 337 336 332 328 328 331 332 333 335 333 332 332 333 335 335 334 325 317 322 329 331 330 330 328 325
315 315 314 313 312 311 311 310 311 312 313 316 319 321 324 329 333 336 338 338 337 336 336 336 335 336 335 334 335 336 334 334 335 335 335 335 336 336 338 337 338 337 336 336 336 335 334 335 336 338 338 338 338 337 338 337 337 337 336 336 337 337 336 332 328 328 329 331 334 336 334 333 334 335 335 330 318 317 325 330 331 330 329 327 325
316 316 317 315 314 313 312 311 311 311 311 312 314 316 317 320 323 327 332 335 337 336 335 335 335 335 335 333 334 335 334 333 334 335 334 335 336 336 337 338 340 339 336 336 335 336 335 335 337 337 337 339 340 339 337 337 338 337 336 336 336 337 337 336 331 328 327 328 331 335 334 334 334 335 335 326 315 318 326 329 331 330 329 326 325
317 318 317 317 317 316 315 314 313 312 311 312 312 313 313 315 316 318 320 326 331 335 335 334 335 335 334 334 333 334 334 334 334 334 334 336 336 336 336 337 338 338 337 336 337 337 336 335 336 337 337 339 341 340 338 337 337 336 336 336 337 337 337 337 334 329 327 327 328 331 334 335 334 335 334 323 315 321 327 329 331 330 329 326 326
316 317 317 317 317 317 316 316 315 313 313 312 311 310 311 312 314 315 316 317 322 330 334 334 334 334 334 334 334 334 333 334 334 334 334 335 335 336 336 337 338 338 337 337 338 338 337 336 336 336 338 339 340 340 338 337 337 336 336 336 337 337 336 336 335 331 328 327 328 329 333 335 335 335 332 319 315 324 328 329 330 330 328 326 326
317 316 316 316 316 316 317 317 316 315 314 313 312 311 311 312 313 313 315 316 317 321 328 332 333 334 334 334 335 335 333 333 333 333 333 334 334 335 336 337 338 337 337 337 337 338 338 337 336 336 338 339 340 341 339 339 338 336 337 337 337 337 337 337 336 333 329 328 329 330 333 335 335 336 331 317 317 326 329 329 330 329 327 326 326
317 316 316 315 315 316 316 316 316 315 314 314 314 313 313 312 313 313 313 314 315 316 319 325 330 333 334 335 335 335 334 334 333 332 332 332 333 334 335 337 337 336 337 337 336 336 337 337 336 336 337 337 339 341 340 339 338 337 337 337 337 338 338 338 337 334 331 330 331 331 334 336 335 335 329 318 321 328 329 329 330 329 327 326 326
317 316 316 316 316 316 315 315 315 315 315 316 315 315 314 313 313 313 313 313 314 316 316 319 325 328 332 334 335 335 335 335 333 332 332 332 332 334 335 337 338 337 337 338 337 335 335 336 336 336 336 336 338 341 341 339 338 338 337 337 337 338 338 338 337 334 332 332 333 334 335 335 335 334 328 322 325 328 329 330 330 330 327 326 325
316 315 316 316 316 316 316 316 317 317 317 317 316 316 315 315 314 313 313 313 313 315 315 317 320 322 326 331 334 335 335 335 334 334 333 332 333 334 334 335 337 338 338 339 339 337 334 334 335 335 336 336 337 340 339 338 339 338 338 338 338 338 338 338 337 334 334 335 335 335 335 335 334 332 327 325 328 329 328 329 330 330 327 326 324
316 316 316 316 316 316 316 316 317 318 318 318 317 317 316 316 316 315 314 314 314 314 314 315 316 317 320 326 333 336 335 334 334 334 333 333 333 334 334 334 334 336 337 338 340 339 336 334 333 334 335 335 336 339 339 338 339 339 339 339 338 338 338 337 336 334 335 336 336 336 335 334 333 328 323 324 329 329 328 328 330 329 327 326 324
316 317 316 316 316 316 316 316 316 316 316 317 317 317 317 317 317 316 316 315 315 314 314 315 315 316 317 320 325 331 334 335 334 334 334 333 334 335 335 334 334 334 336 337 338 338 336 335 334 334 335 335 336 338 340 339 339 340 340 340 339 338 338 337 335 334 336 337 336 336 335 332 331 326 321 324 330 329 327 327 329 329 327 326 324
315 315 315 315 315 316 316 315 315 315 315 315 316 316 316 316 317 317 317 316 316 315 315 314 314 315 316 316 318 323 330 334 335 335 335 335 335 336 335 334 334 334 335 336 337 337 336 335 334 334 334 335 335 337 339 340 340 340 340 339 338 338 338 337 335 335 337 337 335 336 332 328 328 325 322 326 329 328 327 327 329 329 327 327 325
314 314 314 314 314 314 314 314 314 314 315 315 314 315 315 315 315 316 317 317 317 316 316 315 314 314 315 316 317 319 324 330 335 335 335 335 336 336 336 335 334 335 336 335 336 337 337 335 334 333 333 334 335 336 338 340 340 340 340 339 338 339 337 336 335 335 336 336 336 334 324 320 326 326 323 326 328 327 326 327 329 329 328 328 326
315 315 315 314 314 313 313 313 313 313 313 314 314 314 314 314 314 314 315 315 316 317 317 316 316 314 314 315 316 317 319 323 330 335 334 334 335 335 336 336 335 335 336 335 334 336 336 335 335 335 333 333 335 336 337 339 339 339 339 339 339 338 336 335 336 335 335 336 333 324 313 316 326 327 324 325 328 328 327 328 329 329 328 328 327
315 315 315 314 314 314 314 313 313 313 313 313 313 314 314 314 314 314 314 314 315 316 316 316 316 315 314 314 315 316 318 319 323 331 335 335 336 335 336 336 335 335 336 335 334 335 336 336 335 335 333 333 335 336 336 337 338 338 339 339 339 337 335 335 335 335 336 334 324 314 312 320 326 327 326 326 327 328 328 329 329 329 328 328 327
314 314 314 314 314 314 314 314 314 313 313 313 313 313 313 314 314 313 313 313 314 314 314 316 316 316 315 314 314 314 316 318 319 325 332 336 336 335 335 335 335 335 336 335 335 335 335 336 336 335 333 333 335 336 336 337 337 338 338 338 337 336 335 335 336 335 331 323 314 312 318 324 327 327 327 328 328 327 328 329 329 328 328 328 327
313 313 313 314 314 314 314 314 314 314 313 313 313 313 313 313 313 313 313 313 313 313 313 314 315 315 316 316 315 314 314 316 318 321 327 334 336 336 336 336 335 335 336 335 335 335 335 336 336 335 334 335 336 336 336 337 337 338 338 336 335 335 334 334 335 330 321 314 313 317 322 325 327 327 327 327 326 325 326 328 329 328 328 328 326
312 312 312 312 312 313 313 313 313 313 313 313 312 312 312 312 312 313 313 313 313 313 313 313 313 314 315 315 315 314 314 315 316 318 323 330 335 336 335 335 335 335 335 335 335 335 335 335 335 335 335 335 336 335 335 335 336 337 336 335 334 333 331 331 330 322 314 314 319 322 325 327 327 327 327 327 325 323 325 328 329 328 328 328 326
311 311 311 311 311 312 312 311 312 312 311 311 311 312 311 311 312 312 312 312 313 313 313 313 313 313 314 315 315 315 315 314 315 317 319 325 332 335 335 335 335 334 334 334 334 334 334 334 334 335 335 335 334 334 335 335 335 336 335 334 332 330 329 328 324 316 312 317 322 324 324 325 325 326 328 327 325 324 325 328 328 328 329 327 324
310 310 311 310 311 311 311 311 311 311 311 311 311 312 311 311 311 311 312 312 313 313 313 313 313 313 313 314 314 314 315 314 314 315 316 319 327 333 335 334 334 334 334 334 334 334 334 334 333 333 334 335 334 334 334 335 335 336 335 333 329 326 327 326 321 317 316 318 319 319 317 317 322 327 328 326 326 326 327 328 328 328 329 327 324
310 310 310 310 310 310 310 310 310 310 311 311 311 311 311 311 311 311 311 312 312 313 313 314 313 313 313 313 314 314 314 314 314 314 315 317 321 329 333 335 334 334 334 334 334 334 334 334 333 333 334 335 334 334 334 334 335 335 334 332 327 324 325 323 318 316 317 316 314 314 312 312 318 326 329 327 326 327 327 328 328 328 329 327 324
309 309 309 309 309 309 309 309 309 309 310 310 310 310 310 310 311 311 312 311 312 312 313 313 313 313 313 313 313 314 313 313 314 314 315 315 317 321 328 334 335 334 334 334 333 332 333 334 334 333 333 334 333 334 334 334 334 335 334 331 328 325 323 321 318 316 315 313 313 313 313 312 313 320 327 328 327 327 328 328 328 329 329 326 323
309 309 309 309 309 309 308 309 309 309 309 309 310 309 310 310 310 310 311 311 311 311 312 313 313 313 313 313 313 313 313 313 314 314 314 314 315 315 319 328 333 334 333 334 332 331 332 333 333 333 332 333 334 334 335 335 335 335 334 331 328 325 323 320 319 317 315 313 314 315 315 314 312 314 322 327 328 328 328 328 328 329 328 325 323
308 308 308 308 308 308 308 308 308 308 308 309 309 309 309 309 309 309 310 310 310 310 311 311 312 312 312 312 313 313 313 313 313 314 314 314 314 314 314 319 328 332 332 331 331 331 331 331 332 333 333 333 334 334 335 336 334 334 334 331 328 326 324 321 320 319 317 314 315 317 317 317 315 313 316 322 328 329 328 327 328 329 326 323 323
308 308 308 308 308 308 308 308 308 308 308 308 308 308 308 308 308 308 308 308 309 310 310 310 311 311 311 312 312 313 313 313 314 314 315 314 315 315 313 313 320 328 331 331 331 330 330 330 332 333 333 333 334 334 335 335 334 334 334 332 329 327 325 323 321 321 319 316 316 318 319 318 317 315 314 316 321 327 329 328 328 328 326 323 323
308 308 308 308 308 308 308 308 308 308 308 308 308 308 308 308 308 308 308 308 308 309 309 309 310 310 311 311 312 312 313 313 313 313 312 313 313 315 316 314 314 320 327 329 331 331 330 331 332 333 332 332 334 334 335 335 334 334 334 332 330 328 327 325 323 322 321 318 316 319 320 320 319 318 318 316 315 318 324 327 328 328 325 322 323
308 308 308 308 308 308 308 308 308 308 308 308 308 308 308 308 308 308 308 308 308 309 309 309 309 310 310 311 311 312 312 312 312 312 311 312 313 313 316 318 316 316 320 325 329 331 332 332 332 333 333 333 334 334 334 334 335 334 335 333 331 329 328 327 325 323 322 319 318 320 321 321 320 320 321 321 317 314 315 320 324 326 325 323 322
308 308 308 308 308 308 308 308 308 308 308 308 308 308 308 308 308 307 307 307 308 308 309 309 309 309 310 310 311 311 312 312 312 311 311 312 312 313 316 320 322 320 320 321 325 328 331 332 332 332 333 333 334 334 334 334 335 335 335 334 332 329 328 328 326 324 323 321 320 321 321 321 322 321 322 323 321 317 314 312 315 320 322 323 322
308 308 308 308 308 308 308 308 309 309 309 309 309 309 308 308 308 307 307 307 307 308 308 309 309 309 309 309 310 310 311 311 311 311 311 311 311 312 313 316 321 324 325 323 323 325 328 330 331 332 332 333 334 334 334 334 335 335 335 334 332 330 328 329 327 325 324 323 322 323 323 322 322 322 323 324 322 320 319 316 314 313 314 317 320
308 308 308 308 308 308 309 309 309 309 309 309 309 309 308 307 308 308 307 307 307 307 308 308 309 309 309 309 309 310 310 310 311 311 311 311 310 311 311 312 316 323 327 328 327 327 327 328 329 330 331 332 334 334 334 333 335 335 335 334 333 331 329 330 328 325 324 324 324 325 324 322 323 324 325 325 323 322 322 320 318 314 312 314 318
308 308 308 308 308 309 308 308 308 308 308 308 308 307 307 306 306 307 307 307 307 307 308 308 308 308 308 309 309 309 310 310 310 311 311 310 310 310 311 311 313 319 326 329 330 330 329 329 330 330 331 332 333 334 333 333 334 335 335 334 333 331 330 330 328 326 325 324 325 327 325 321 323 325 325 325 324 323 323 321 319 317 315 315 318
308 308 308 308 308 308 308 307 307 308 308 307 307 306 306 305 305 306 306 307 307 307 307 308 308 308 308 308 308 309 310 310 310 310 310 310 310 310 310 311 312 315 320 325 330 331 330 330 330 330 331 331 332 333 333 334 334 335 335 334 332 331 330 330 329 327 327 325 325 328 326 322 322 326 325 324 323 321 321 321 320 318 315 316 318
Wind_Speed
5 4 4 5 4 3 5 5 5 7 8 7 6 7 8 9 11 12 11 12 13 11 9 8 9 10 10 10 12 12 12 12 12 12 10 8 10 11 12 11 9 8 9 9 9 11 14 14 12 12 12 11 10 10 10 10 11 11 10 11 10 8 8 7 6 5 5 5 5 6 6 6 5 4 3 4 4 5 5 6 8 9 10 10 7
5 2 2 3 3 4 5 4 4 7 8 8 7 7 9 9 10 11 11 12 13 14 12 9 8 9 9 9 11 13 13 13 14 13 12 13 12 14 15 14 12 10 10 10 10 11 14 15 14 14 13 11 11 11 12 12 12 12 12 11 8 6 6 6 6 6 4 5 6 6 7 5 4 3 2 3 4 5 6 8 9 9 9 7 4
5 3 2 3 4 5 6 5 6 7 8 8 7 7 9 10 10 12 14 15 15 15 15 14 13 12 10 8 9 12 14 15 14 13 14 15 13 16 17 16 15 12 12 11 11 12 14 16 15 15 14 13 12 11 12 12 12 13 13 11 9 7 6 5 5 5 4 6 6 6 6 4 3 2 1 2 4 6 7 9 9 8 8 4 2
6 4 4 3 4 5 7 7 7 8 8 7 8 7 9 11 12 13 14 15 17 17 16 17 17 16 14 12 11 11 12 14 14 14 15 13 12 16 18 17 17 14 14 14 12 13 14 16 17 16 15 15 14 12 12 13 12 13 14 12 9 8 6 4 3 3 4 6 6 6 5 3 2 1 1 3 5 7 8 8 8 7 5 2 2
7 5 5 4 4 5 6 7 8 9 9 7 7 7 9 11 13 14 14 15 16 17 17 17 17 17 17 17 15 13 13 13 13 14 14 14 14 15 15 17 17 15 15 16 14 14 15 16 18 18 16 14 15 14 13 13 11 13 14 13 10 7 6 4 3 3 4 5 6 5 4 3 2 1 1 4 6 8 7 7 6 5 2 2 2
7 6 5 4 4 4 4 6 7 9 10 10 9 9 8 9 11 12 13 13 14 15 15 16 17 17 19 20 19 17 14 13 15 17 13 11 13 15 15 15 16 17 17 18 17 15 15 17 18 19 17 15 16 16 15 14 12 13 14 13 11 8 6 5 4 4 4 5 5 4 5 4 2 1 3 5 7 8 8 7 4 2 2 2 2
6 5 5 5 5 4 4 6 7 9 11 11 11 10 8 7 9 10 11 12 13 15 16 18 19 19 21 22 20 18 17 17 16 16 14 13 12 13 15 17 16 17 18 19 20 18 16 17 19 20 19 17 18 17 17 17 14 13 13 13 12 9 7 6 5 5 5 5 4 4 6 5 3 2 4 5 7 8 8 7 3 1 1 1 1
6 5 6 5 5 5 5 6 8 10 11 11 11 11 10 9 9 10 10 11 12 16 18 18 20 20 21 23 22 20 20 22 20 15 15 15 14 14 16 16 16 18 19 19 21 20 18 17 18 20 20 20 19 17 17 18 16 15 14 12 12 10 8 7 6 5 5 4 3 5 7 5 3 2 4 6 7 6 6 6 3 0 1 1 1
6 6 6 6 6 6 6 6 8 10 10 11 12 12 12 11 11 11 11 10 10 15 17 15 16 18 19 21 22 22 22 23 22 18 15 15 16 18 19 16 16 19 19 18 19 20 19 18 19 20 21 21 20 19 18 18 18 16 14 13 12 12 10 8 6 5 5 3 4 6 7 5 3 3 5 7 8 6 4 4 2 1 2 2 2
7 6 7 7 6 7 7 7 7 8 9 10 12 11 11 11 11 11 11 10 10 15 17 13 12 15 18 20 21 22 22 22 22 21 19 17 17 17 17 16 18 21 20 18 17 17 18 19 20 20 20 21 21 20 19 19 19 17 16 15 14 13 11 11 9 6 6 5 4 6 7 6 5 4 5 7 7 5 3 2 1 2 3 3 3
7 7 7 6 7 8 8 7 7 7 8 9 10 10 10 11 12 12 11 10 11 16 17 13 12 15 16 18 20 21 21 21 22 23 22 20 19 19 16 13 17 20 19 18 18 17 17 18 20 22 21 22 22 21 20 21 21 19 17 16 15 14 12 12 11 8 7 7 5 6 6 6 5 5 6 7 6 3 2 1 1 3 4 4 4
6 6 7 6 7 8 8 8 8 8 9 10 9 8 9 11 12 12 11 10 14 18 16 14 15 17 17 18 21 22 22 22 22 23 22 20 20 21 20 14 16 19 19 19 20 20 18 18 20 21 21 22 22 21 21 22 22 20 19 18 16 15 13 12 12 10 8 8 6 6 6 6 5 5 6 7 4 2 1 1 2 3 5 5 4
6 6 7 6 6 7 8 9 9 10 11 11 11 10 10 12 13 12 10 10 17 19 16 13 12 12 14 16 20 22 23 23 24 24 24 22 21 21 22 18 15 18 21 22 22 21 21 20 20 20 21 22 21 21 22 23 23 22 21 19 17 16 14 13 13 11 9 9 7 7 7 7 5 5 6 6 3 3 2 2 3 4 6 6 4
6 7 8 8 8 8 8 9 9 11 12 11 12 12 11 12 13 14 12 13 18 19 15 12 9 8 8 8 12 16 19 20 23 25 26 25 23 22 24 22 18 15 18 23 21 21 22 21 20 19 19 20 19 20 22 23 24 23 22 21 19 18 16 14 14 12 9 9 9 8 8 7 6 6 7 5 4 4 4 3 3 5 7 6 4
7 7 8 8 10 11 10 10 11 12 13 12 12 12 13 15 16 16 15 15 18 19 15 13 11 9 5 4 4 6 8 11 16 22 25 26 25 24 24 24 22 17 17 21 21 21 21 22 23 21 19 20 20 20 20 23 24 23 23 22 21 19 16 15 15 13 12 12 11 10 9 8 7 7 6 5 6 5 4 4 4 6 8 6 4
6 7 8 8 9 10 11 12 13 13 13 13 13 14 14 15 15 16 16 14 16 17 14 14 14 10 4 2 1 1 3 3 7 15 20 24 26 25 25 24 23 20 18 20 21 22 23 23 25 23 21 22 22 20 19 21 22 22 23 23 22 20 17 16 15 13 14 14 13 12 10 9 8 7 6 6 7 6 5 5 5 8 9 6 4
6 6 7 8 8 9 10 11 13 13 14 14 14 13 13 14 14 14 16 16 15 16 14 14 16 16 11 6 2 1 2 1 3 7 11 16 20 22 24 24 23 22 19 19 20 22 23 24 24 24 23 24 23 22 21 20 20 21 22 22 22 21 19 18 16 14 15 15 14 13 11 9 8 7 7 8 8 7 6 6 7 9 9 7 5
6 6 6 7 8 10 11 10 11 12 13 15 14 13 13 13 13 14 15 16 16 15 14 14 16 19 19 16 12 7 3 2 3 3 6 11 16 19 21 21 22 22 21 21 20 21 22 24 25 25 25 25 24 24 24 23 21 21 21 21 21 21 21 20 18 16 15 14 13 13 12 10 8 8 8 9 8 7 7 8 9 10 9 7 5
5 7 7 8 8 10 11 11 12 12 13 14 15 14 14 13 13 14 15 17 16 15 15 15 14 16 18 20 21 17 11 6 3 2 5 8 10 14 18 18 20 20 18 19 21 20 22 26 27 27 27 25 25 25 25 25 23 22 22 20 19 20 21 21 20 19 17 14 13 13 13 11 9 8 9 10 8 7 8 10 11 11 10 8 6
6 8 8 8 9 11 12 12 13 13 13 13 14 14 14 14 14 14 15 16 16 16 16 16 14 14 15 17 18 18 17 15 12 7 3 4 6 9 13 16 18 20 15 13 20 21 22 26 27 28 28 26 26 27 25 24 23 23 23 21 19 19 20 22 22 20 19 17 15 13 13 12 10 9 10 9 8 8 10 12 12 11 11 9 7
7 8 8 9 10 11 12 13 14 14 14 14 14 14 14 14 15 15 14 14 15 16 17 18 17 15 14 14 14 15 16 17 17 14 8 6 6 5 8 11 13 20 19 12 19 22 22 24 26 29 29 26 27 28 26 24 24 24 24 23 22 20 20 21 22 22 21 19 17 14 14 13 11 10 11 9 8 9 11 13 13 12 11 9 7
9 9 10 12 11 11 12 13 13 14 15 15 15 15 15 15 15 15 15 16 16 17 17 18 18 18 17 16 15 14 12 10 12 15 12 8 7 6 8 9 7 12 17 13 18 22 21 21 25 27 28 26 28 29 28 26 26 26 25 24 24 22 20 20 22 23 22 21 19 16 15 14 12 12 12 9 9 10 13 14 14 13 12 10 8
10 11 12 13 11 12 13 14 14 15 15 15 15 16 17 17 17 16 17 17 17 17 17 18 17 17 18 18 19 18 14 10 11 14 10 7 7 6 9 12 11 11 14 12 15 19 19 20 24 26 28 29 29 31 31 28 26 26 25 23 23 23 21 19 21 22 22 22 21 18 16 15 13 13 12 10 10 12 14 15 14 14 13 11 9
11 12 13 14 14 15 16 16 15 15 15 15 17 18 18 19 19 19 18 18 18 18 18 19 18 17 18 19 20 20 19 18 17 15 13 11 8 5 7 11 10 10 13 11 12 17 19 21 24 27 30 31 30 33 33 29 26 25 24 23 22 22 21 20 21 22 22 21 21 19 17 16 15 15 13 11 11 13 15 15 15 15 14 11 9
13 14 15 15 16 17 17 17 17 17 17 19 20 20 20 20 20 20 20 19 19 19 19 20 20 20 20 21 21 21 22 22 21 19 19 18 13 7 8 12 8 7 11 12 12 15 18 22 25 27 31 32 29 31 34 30 26 25 24 23 23 22 22 21 20 21 21 20 20 20 19 17 16 16 14 13 13 15 16 16 16 16 15 12 10
16 17 17 17 17 18 19 19 20 21 21 21 21 21 21 21 21 21 21 21 21 20 21 21 21 21 21 21 22 22 23 22 22 22 21 19 16 10 8 10 9 8 8 11 12 12 14 19 25 27 30 32 30 30 34 31 26 25 24 23 22 21 22 22 21 20 21 20 19 20 19 18 17 16 15 14 15 16 16 17 17 17 15 12 10
18 19 19 19 19 21 21 22 22 22 22 21 21 21 22 22 22 22 22 23 22 22 22 21 21 22 21 21 22 22 23 23 22 23 23 21 20 17 10 6 7 6 6 9 11 12 13 14 19 26 29 31 32 33 34 32 27 24 22 22 20 20 22 22 22 21 21 20 20 20 19 18 17 17 16 16 16 16 17 18 18 17 15 13 11
22 21 21 22 22 22 23 23 22 22 22 22 21 21 22 22 23 23 24 24 24 24 23 23 22 22 22 21 22 22 23 23 22 23 25 25 23 21 16 9 6 5 5 6 7 10 15 15 15 20 27 31 33 34 34 31 27 23 21 22 21 21 23 22 22 22 21 21 21 20 19 19 18 17 17 17 18 18 17 18 18 17 16 13 11
23 22 23 23 23 24 24 24 23 23 23 22 22 22 22 23 22 23 24 24 24 25 25 25 24 24 23 22 21 21 22 21 21 23 24 26 26 25 23 19 13 7 5 6 5 5 11 15 15 15 21 29 31 31 33 30 26 23 22 22 21 21 22 22 23 23 22 21 21 21 20 19 18 18 19 19 20 20 18 18 19 18 16 14 11
23 23 23 24 24 25 25 25 25 25 25 24 23 23 22 22 22 22 23 23 24 25 25 25 25 25 25 24 23 21 21 21 22 23 24 25 27 27 28 26 21 13 8 6 6 7 9 12 16 16 19 27 26 23 28 30 25 23 23 22 20 19 20 22 23 23 22 22 21 21 20 19 19 19 20 20 20 21 18 18 20 19 17 15 12
24 25 25 25 25 25 25 25 26 25 26 26 26 25 24 24 23 22 22 22 23 25 25 25 26 26 26 26 25 23 22 21 21 23 24 25 26 26 26 26 24 22 17 10 6 8 12 11 14 15 17 21 21 18 23 28 26 22 22 24 21 18 20 23 24 24 23 22 22 22 20 20 20 19 21 21 20 20 19 19 21 19 18 16 13
26 26 27 27 27 27 26 26 26 26 27 27 27 26 27 26 24 24 23 22 22 23 25 25 25 26 26 26 26 24 23 21 21 22 23 24 25 25 24 24 24 24 22 16 8 8 13 13 12 13 12 13 14 19 25 26 25 23 23 25 22 18 20 24 25 25 24 24 24 22 21 21 21 20 21 22 20 20 20 21 22 20 19 17 13
27 28 29 30 30 30 30 30 30 29 30 30 28 28 29 27 26 25 24 22 22 23 24 24 24 26 27 27 26 25 24 22 21 22 23 24 24 24 24 23 23 22 20 18 12 9 13 15 15 15 14 11 10 18 25 23 23 24 24 25 23 20 24 26 26 26 26 25 24 22 21 22 22 20 21 22 22 21 20 22 23 23 21 18 14
27 27 28 29 29 30 30 31 30 29 30 31 30 29 29 27 26 26 25 24 24 23 23 24 24 25 27 28 27 26 25 25 23 21 22 24 23 23 24 24 24 23 22 22 16 10 12 14 16 16 15 13 10 16 23 21 22 25 24 25 24 23 28 28 27 27 27 25 24 22 22 22 22 22 21 22 24 22 21 22 25 24 22 19 15
28 28 28 28 28 29 30 31 31 30 30 30 30 29 28 27 27 28 29 28 26 24 23 24 24 24 25 27 28 27 25 25 25 22 21 23 23 23 24 24 25 24 23 25 21 15 13 13 16 15 14 15 13 16 21 19 20 24 25 26 25 26 29 29 29 28 26 24 23 23 23 23 22 22 22 22 24 24 22 23 25 24 22 19 15
28 28 28 28 28 29 29 30 31 31 31 31 32 31 30 30 29 29 30 30 28 26 24 23 23 24 24 26 27 28 27 26 26 24 22 23 23 24 24 23 25 25 24 25 24 21 17 14 13 14 14 14 14 17 21 17 18 22 24 26 27 26 27 29 30 28 25 24 24 23 23 22 21 21 22 23 24 25 23 24 26 25 22 20 15
26 27 27 26 27 28 28 29 30 31 31 32 32 32 32 31 31 30 30 30 31 30 27 26 25 24 25 26 26 27 28 26 25 25 22 22 23 23 23 23 24 24 23 23 23 21 18 15 11 12 14 13 13 17 20 20 21 21 22 26 27 26 26 27 28 28 26 25 24 23 22 22 20 20 23 23 22 23 23 24 26 25 23 20 16
25 26 26 25 26 27 27 28 29 30 31 32 31 31 31 32 32 32 30 29 29 30 28 27 26 25 26 27 26 26 27 27 26 25 23 21 22 22 22 22 23 23 22 23 22 18 18 18 15 11 11 11 14 18 20 24 27 25 25 25 24 27 28 27 28 28 27 25 24 23 22 21 20 20 22 23 22 22 23 24 25 25 24 20 17
25 26 26 26 27 28 28 29 29 29 30 31 30 30 31 31 30 32 31 30 30 29 27 26 26 26 26 26 26 26 26 27 27 26 25 22 20 21 22 22 22 21 21 22 21 18 18 18 16 13 11 11 17 20 20 24 25 25 27 24 20 25 28 28 30 30 27 26 24 22 20 20 20 21 22 22 22 22 23 25 25 25 24 21 17
26 26 26 26 28 28 28 29 29 29 30 30 31 31 31 30 29 30 30 29 29 29 27 25 25 26 26 26 26 26 27 27 27 27 27 25 21 19 20 22 21 20 21 20 17 16 17 17 16 16 13 13 16 16 18 23 21 20 27 24 20 25 27 27 31 31 29 28 25 22 21 20 20 21 22 22 22 23 24 25 24 25 24 21 18
27 27 28 28 29 29 29 30 30 31 31 32 32 31 30 31 30 30 29 27 28 28 26 24 24 25 26 26 26 27 27 27 28 29 30 30 28 23 19 21 22 20 20 19 16 15 17 16 15 16 14 13 16 16 19 26 25 24 28 23 20 24 26 25 28 29 29 30 26 24 22 21 21 22 23 24 23 23 24 24 24 25 25 22 19
28 28 29 28 28 28 29 30 31 31 31 31 31 30 31 32 33 32 31 29 29 28 26 25 24 25 26 26 26 26 26 28 29 30 32 34 35 32 25 21 21 21 20 18 17 18 17 14 14 16 13 13 18 21 22 26 27 27 29 24 22 25 24 22 21 23 28 30 28 25 23 21 22 22 23 26 25 25 25 24 25 27 27 24 22
26 26 26 26 27 28 29 30 30 31 31 30 30 31 32 34 34 34 33 30 29 28 27 26 26 26 26 26 25 25 26 27 28 29 30 32 36 37 34 27 21 21 21 20 19 19 18 16 16 18 16 15 21 24 24 24 25 27 28 25 25 27 24 19 17 19 26 31 29 25 23 22 23 23 23 26 27 28 27 26 27 29 28 26 23
25 26 27 28 29 30 31 31 31 31 32 31 31 33 34 35 36 37 36 33 31 31 30 28 28 27 26 26 26 25 25 25 25 26 27 27 31 35 36 33 27 24 23 23 22 21 20 19 17 18 20 20 22 25 25 25 26 28 28 25 26 28 25 21 19 20 27 32 30 25 23 23 24 23 22 24 27 29 29 28 28 29 28 27 24
27 28 29 31 32 32 32 32 32 32 33 33 34 37 38 39 39 40 40 39 36 34 33 31 30 28 27 27 27 26 26 25 24 25 27 27 28 31 33 34 33 31 28 27 25 24 24 23 19 20 23 23 22 24 27 30 30 30 28 25 26 28 27 24 23 25 30 33 30 26 23 24 25 23 21 22 24 27 28 28 29 30 29 28 26
27 28 29 30 31 30 30 30 31 33 34 34 35 35 36 35 36 38 40 40 38 36 35 34 33 32 30 29 28 28 28 27 25 25 25 27 29 29 29 30 34 36 34 32 29 28 28 25 22 22 24 24 25 27 31 34 33 33 33 31 28 28 27 25 26 29 32 34 32 25 20 23 26 24 22 21 22 25 27 27 29 31 29 28 27
27 27 28 28 28 28 29 30 32 32 32 33 33 32 32 32 33 37 39 38 37 37 36 35 34 34 33 32 31 30 30 30 28 26 25 27 29 29 26 26 29 33 36 35 33 33 32 29 27 28 27 26 29 31 31 34 37 40 42 39 33 31 28 24 24 28 31 32 31 23 18 23 28 24 22 23 24 25 25 24 25 29 30 28 27
28 28 28 28 28 29 30 32 33 34 34 34 35 35 35 37 39 41 42 40 36 36 37 37 36 35 34 34 34 33 32 32 30 29 28 29 31 31 28 25 25 27 31 32 33 34 34 33 32 33 30 27 28 31 32 34 39 41 38 32 29 31 29 22 21 27 29 30 30 24 19 24 28 24 22 24 25 25 25 23 23 25 27 28 28
28 28 28 28 29 30 31 33 34 35 34 32 33 35 36 37 38 40 44 44 39 36 36 37 36 36 35 35 35 35 35 34 33 31 30 30 32 33 31 28 25 24 25 27 28 30 32 33 34 34 33 29 26 28 31 36 40 38 31 24 24 28 27 17 15 22 29 31 31 26 22 25 27 24 24 25 25 24 24 24 23 23 25 27 28
26 26 26 28 29 30 32 33 33 33 33 33 36 38 39 39 39 39 41 43 41 38 36 35 35 35 35 37 37 37 36 35 35 34 32 32 33 33 33 30 26 23 21 21 23 24 25 29 33 33 33 32 29 27 30 35 39 37 32 30 29 27 23 17 16 20 25 30 34 28 22 26 28 25 25 23 18 19 23 26 25 24 25 27 28
26 27 28 29 31 32 34 35 35 36 38 40 41 41 41 40 39 40 40 38 35 34 35 35 35 35 35 36 39 40 40 38 36 35 34 34 34 33 33 32 28 25 23 19 19 21 20 23 29 31 31 32 32 30 32 34 35 35 35 36 36 31 24 20 23 20 14 20 34 31 22 26 30 27 28 21 10 10 19 26 27 25 26 29 30
Wind_Direction
237 231 241 246 236 246 237 218 217 232 239 243 245 248 252 255 261 267 275 277 269 271 281 268 248 237 239 255 265 261 246 243 250 261 261 244 247 249 236 234 238 233 229 221 219 201 193 208 203 196 205 205 211 215 217 217 215 220 222 239 251 239 245 263 281 295 282 281 297 300 306 301 284 266 279 296 302 327 338 338 332 332 341 345 354
243 235 250 266 259 259 254 243 250 249 236 235 247 252 253 254 262 269 275 280 275 277 284 280 267 259 254 249 256 263 260 252 246 245 249 248 250 248 240 237 235 231 230 223 222 206 195 208 206 196 205 208 210 215 219 220 219 223 225 236 246 240 243 257 283 296 270 271 286 295 303 291 270 252 260 297 319 337 334 328 328 333 342 346 4
230 216 225 259 261 257 255 245 241 250 246 242 248 252 254 253 258 264 267 271 275 277 281 285 283 276 275 279 278 267 257 254 244 236 248 255 250 244 243 238 234 233 231 223 221 214 201 204 204 199 204 207 211 215 218 220 219 223 230 238 241 245 261 271 286 292 271 275 278 287 299 280 249 243 276 336 335 330 324 322 325 330 334 341 26
237 219 218 247 262 259 265 264 252 254 257 254 255 257 262 264 263 265 272 274 274 276 279 285 287 282 281 290 303 298 279 263 247 243 244 244 242 241 242 237 233 234 233 227 221 216 207 202 203 205 205 205 211 215 217 221 217 220 233 244 245 250 262 265 277 290 275 274 276 282 288 258 226 194 354 345 331 319 319 321 325 330 328 360 49
253 245 226 233 251 257 274 280 276 277 276 273 271 268 270 274 274 274 279 281 279 281 285 287 289 288 285 287 292 295 298 290 276 266 242 229 236 235 237 237 234 234 232 229 223 216 211 203 201 208 209 203 209 216 218 221 218 218 229 240 248 253 251 245 260 283 278 275 277 276 263 227 199 161 337 338 326 318 325 322 320 335 347 45 58
250 263 254 245 246 254 275 276 277 283 280 273 271 274 277 274 275 278 277 279 282 282 285 286 288 289 286 286 286 284 286 291 297 291 271 249 245 239 239 238 237 237 231 227 225 218 213 207 201 208 211 204 209 215 218 226 227 221 222 229 238 244 234 232 258 278 284 285 280 260 232 209 190 236 331 336 327 326 334 329 325 360 9 47 82
244 254 253 251 254 252 253 257 260 268 270 264 261 266 272 270 272 279 276 276 280 279 279 279 281 283 283 282 281 279 275 278 291 293 287 276 258 249 242 230 233 241 234 226 224 220 216 213 206 206 210 209 213 213 214 226 231 225 223 222 227 230 227 240 259 270 283 287 271 234 214 202 200 279 331 331 324 328 333 334 348 33 13 74 96
257 254 247 251 259 250 242 249 253 257 260 256 251 253 256 258 263 270 274 278 283 284 281 278 278 278 280 282 278 274 270 272 278 280 283 278 260 248 238 229 233 239 237 229 223 222 219 217 213 209 210 212 217 216 213 222 225 224 226 224 225 226 233 256 260 260 274 271 244 218 207 208 221 284 329 323 317 327 327 321 320 283 158 152 151
266 263 255 254 255 251 248 249 253 257 257 250 248 252 253 253 257 263 270 275 282 284 280 276 276 278 279 281 279 275 271 268 269 269 274 280 273 251 234 236 240 232 230 226 224 226 223 222 219 216 213 212 218 220 214 218 223 224 227 226 226 227 235 253 253 255 256 238 224 215 209 214 238 288 319 318 318 328 325 308 287 194 169 182 182
274 273 267 262 260 262 257 247 249 254 255 253 254 257 259 258 259 260 260 263 271 275 274 272 272 278 281 282 282 279 274 267 263 263 265 272 277 258 236 239 241 230 224 223 225 228 228 227 223 220 218 215 219 223 216 217 224 225 226 228 226 225 232 239 244 254 240 222 212 210 212 221 245 289 309 313 317 324 321 304 246 183 177 172 165
282 281 280 277 269 268 267 264 260 255 253 257 261 263 266 263 260 259 259 263 266 267 268 266 266 274 279 283 285 280 275 269 264 263 263 262 267 267 261 241 225 227 227 223 224 225 228 230 224 221 222 220 221 223 220 219 222 222 224 229 228 227 230 228 239 250 226 213 206 205 216 228 249 283 302 306 310 309 305 285 171 173 169 160 158
298 293 290 287 282 276 275 274 266 259 255 253 256 260 263 263 264 266 269 271 267 264 263 262 269 277 279 279 279 277 274 273 271 268 262 258 261 269 272 248 222 237 242 229 224 223 225 229 225 220 222 224 223 224 224 223 222 221 221 226 227 228 226 220 233 240 214 207 212 212 224 235 251 276 296 301 293 249 209 157 142 157 159 156 161
326 322 314 305 297 285 281 279 272 268 266 263 264 264 260 261 267 265 260 265 267 262 255 255 268 277 277 274 273 274 273 271 272 270 263 257 259 264 268 258 243 249 241 226 221 220 222 226 225 223 223 225 225 225 226 226 226 225 222 222 222 224 223 217 228 233 212 213 224 224 234 243 251 268 292 296 246 183 180 158 140 154 159 159 166
338 337 330 326 321 307 297 290 284 282 281 279 274 268 261 258 261 262 256 257 264 261 250 246 248 255 268 279 281 280 275 271 271 271 264 256 255 259 264 262 256 244 223 217 217 217 224 227 225 223 221 223 228 230 228 227 229 229 226 224 220 221 220 216 227 234 227 231 235 232 240 246 246 263 283 274 201 181 180 162 151 162 164 164 169
331 333 327 325 323 319 315 304 296 292 287 283 277 271 268 263 259 259 256 255 261 260 248 238 233 238 259 272 280 294 285 272 268 270 265 257 254 254 257 260 259 250 230 224 221 219 225 229 225 220 215 218 226 230 229 229 230 229 229 226 223 222 219 214 221 227 232 239 237 234 243 245 244 258 266 229 189 187 178 163 162 165 166 167 168
333 333 327 323 320 318 317 312 307 303 296 290 285 277 271 269 264 256 253 254 260 259 248 239 231 223 227 245 222 280 280 274 275 275 269 259 253 250 252 254 255 254 242 228 223 226 230 227 224 220 215 217 221 224 228 231 231 231 230 226 224 224 218 212 214 216 226 235 234 235 242 243 243 250 239 198 185 193 184 167 164 167 170 171 167
336 337 333 329 328 323 318 315 312 309 303 297 290 281 274 272 268 261 260 257 256 259 257 246 235 225 222 228 218 221 261 336 339 292 274 259 249 247 250 251 253 252 240 227 223 229 234 229 224 221 219 222 223 221 223 227 229 231 231 227 224 223 218 212 209 212 223 231 232 233 238 238 236 235 215 188 187 203 198 175 167 172 177 174 169
326 326 323 320 326 325 321 321 319 318 315 309 303 296 291 285 274 269 271 264 256 262 264 254 246 238 233 236 242 246 263 342 354 305 294 277 258 249 249 252 255 250 240 234 222 219 231 234 228 224 223 224 225 226 224 223 224 227 228 227 224 221 219 215 208 208 218 224 225 227 232 232 226 221 202 185 194 215 200 176 171 177 178 172 170
315 310 310 315 318 315 314 316 315 318 319 317 315 311 306 300 291 280 274 271 266 266 265 262 259 251 246 245 244 244 249 261 267 286 309 294 272 261 255 255 257 253 247 233 220 223 233 232 228 227 226 225 225 229 227 224 224 225 224 224 225 221 219 218 211 207 209 213 215 219 224 225 222 212 192 188 206 216 192 175 176 180 176 171 169
309 307 309 314 312 308 307 308 310 314 316 314 315 315 315 311 308 296 280 275 273 266 264 269 269 263 264 260 250 246 249 252 251 247 270 284 284 280 267 261 256 255 258 222 212 226 227 219 223 227 226 226 228 229 227 225 225 225 223 220 222 220 216 216 215 211 207 207 210 215 219 218 218 207 189 195 212 205 185 177 180 180 173 170 167
306 306 302 304 305 303 303 304 307 311 310 311 310 310 313 312 311 309 295 284 279 272 268 270 271 270 272 269 261 252 247 252 250 237 230 246 263 275 269 271 257 250 255 219 194 207 213 217 229 230 226 227 231 231 229 228 228 227 224 218 218 218 214 213 214 214 210 208 208 211 215 216 214 203 192 199 209 193 180 180 183 179 171 169 165
305 299 292 298 302 298 299 301 302 303 303 306 308 308 310 309 307 308 304 297 290 282 276 273 270 267 268 268 268 258 244 248 245 232 229 235 245 258 255 262 260 249 255 230 190 194 206 224 233 230 229 229 229 231 230 228 228 229 225 217 216 217 215 211 212 214 212 211 210 209 214 216 210 201 195 200 204 188 177 182 186 178 171 170 164
300 295 290 294 293 289 292 294 294 295 296 297 301 303 305 305 303 301 299 298 293 287 283 279 274 268 267 263 259 255 248 245 239 232 232 228 234 257 253 251 254 255 259 244 210 203 209 228 233 228 230 231 230 231 231 228 227 228 225 219 218 218 215 211 210 211 213 213 213 212 214 215 209 200 196 199 196 183 178 184 185 176 172 171 164
290 287 287 289 288 287 287 287 286 287 288 291 294 296 297 297 298 298 296 293 291 288 284 281 276 268 267 264 256 252 254 254 248 243 244 242 241 252 260 258 254 250 252 242 222 215 213 222 231 231 231 230 229 231 231 228 226 225 223 222 222 219 214 210 208 209 211 213 215 214 212 212 207 197 195 198 188 179 180 184 181 175 174 171 164
282 281 284 287 288 287 286 285 284 283 286 290 291 292 292 292 292 293 293 291 290 286 283 282 280 274 270 267 259 255 256 254 250 250 249 249 251 253 258 259 252 249 254 239 221 218 215 218 225 228 228 225 225 229 229 225 222 221 220 220 220 218 211 207 208 207 207 210 213 212 210 209 203 194 194 197 183 177 183 184 179 176 175 171 164
279 281 284 286 286 284 286 285 284 285 286 286 286 287 290 290 288 289 289 289 288 286 283 281 280 279 276 270 262 259 257 252 251 251 247 246 248 248 253 254 250 254 260 247 228 213 214 220 223 223 226 228 225 225 224 221 220 219 217 217 216 214 210 207 209 207 203 205 207 207 207 205 199 192 194 194 181 177 185 185 180 177 177 171 163
279 282 284 284 283 283 285 285 285 286 285 283 283 283 286 286 286 287 287 288 287 285 283 281 278 278 278 273 266 261 258 254 251 247 245 245 245 243 244 251 254 252 254 249 235 223 220 218 219 220 224 228 224 221 220 218 217 217 213 212 214 212 209 207 208 206 200 200 203 202 201 199 195 190 192 190 180 178 185 185 180 179 177 170 163
281 284 284 284 285 285 286 286 286 285 283 283 282 282 283 282 282 284 286 287 285 283 283 281 279 278 277 273 265 259 259 257 251 248 250 250 244 239 238 239 246 250 249 244 235 239 236 224 218 219 220 224 223 218 218 216 213 210 205 207 209 206 204 205 205 203 199 199 200 197 193 193 192 190 191 188 180 182 188 185 179 179 178 170 164
280 282 283 284 285 285 286 286 286 285 283 282 280 280 280 279 278 280 283 286 285 283 282 280 279 277 275 272 263 258 260 260 254 250 250 247 244 242 240 236 233 238 253 250 236 233 232 226 225 221 220 228 226 213 211 213 209 203 199 201 204 202 199 199 202 200 197 199 196 189 187 188 188 189 191 186 181 186 190 184 178 178 178 170 163
277 278 279 280 281 282 282 282 283 283 283 283 280 278 275 274 274 274 277 282 284 284 283 281 281 279 275 273 268 262 259 261 260 255 250 245 241 241 241 236 230 229 239 254 251 233 222 219 223 223 223 230 231 217 208 209 206 200 196 197 202 204 199 195 199 198 194 195 190 183 184 184 184 188 187 183 185 190 190 183 179 178 176 170 160
275 275 276 276 276 277 278 279 280 279 279 280 279 279 276 274 272 270 270 273 277 281 282 282 281 279 276 273 270 265 260 257 257 254 250 246 240 237 239 236 230 229 234 245 259 241 230 221 222 228 224 225 234 232 214 208 206 200 193 195 201 203 197 194 196 195 192 190 184 181 185 185 185 187 184 182 188 192 188 184 179 174 174 172 162
275 275 277 277 277 277 277 278 280 281 280 278 276 277 276 274 272 269 268 268 269 273 277 280 281 279 278 276 272 269 265 258 249 247 248 246 243 240 238 236 232 231 232 239 253 250 243 243 242 243 235 228 234 230 219 211 203 195 189 194 200 195 190 192 192 192 190 185 183 186 189 185 184 185 183 182 187 190 187 182 176 172 175 176 167
276 275 275 275 276 277 276 275 274 274 276 276 276 275 273 273 274 271 269 267 266 268 271 274 277 279 279 278 276 272 270 266 253 245 245 243 242 241 239 237 236 233 229 233 243 253 253 253 252 252 250 251 238 218 218 211 195 190 189 192 195 187 184 188 188 188 187 185 187 189 186 182 182 183 184 183 184 188 187 180 176 176 178 178 172
281 280 279 278 278 279 279 278 275 272 272 273 274 273 271 272 275 277 276 271 265 264 267 270 272 275 277 278 279 275 272 271 263 249 241 240 239 240 241 237 235 235 231 229 233 241 249 244 240 247 248 242 223 203 212 209 188 185 187 187 187 180 180 185 184 184 186 189 190 185 179 179 182 184 186 185 186 188 185 180 178 179 179 177 175
284 284 285 286 285 285 284 284 283 281 280 279 278 279 278 277 276 279 280 276 268 261 261 264 266 268 272 275 278 279 275 272 269 259 246 242 240 238 239 237 233 235 233 230 230 231 242 238 228 235 235 224 211 199 206 205 186 180 180 177 175 171 176 183 183 182 186 189 187 182 179 181 184 185 184 184 187 188 184 181 181 181 179 176 176
284 284 284 285 286 285 283 284 284 283 283 283 281 281 283 283 280 276 276 277 275 267 260 262 266 268 269 270 273 277 278 274 271 266 254 244 240 236 237 237 235 235 233 231 230 229 238 243 225 220 222 215 205 201 204 199 183 180 176 170 168 166 172 180 182 181 182 186 185 183 183 183 183 184 182 182 185 186 184 182 182 181 179 175 175
287 286 284 284 284 283 280 281 282 281 282 282 279 277 279 281 282 278 274 273 275 272 265 261 263 267 268 268 268 270 274 274 272 271 262 247 240 238 239 239 237 236 235 233 233 232 236 243 232 213 208 201 192 200 208 200 188 183 178 172 166 163 168 176 181 180 179 182 185 185 185 185 182 181 182 183 183 183 184 183 183 182 178 174 174
288 287 285 285 285 284 282 281 280 279 279 279 279 279 277 277 279 280 277 275 275 274 269 260 256 259 263 267 268 267 270 273 273 275 273 259 245 240 242 242 238 236 237 235 235 234 234 237 235 215 198 191 192 200 204 198 191 181 175 173 163 160 168 175 177 178 179 182 186 187 186 185 182 180 183 184 183 183 183 182 183 183 179 174 174
287 285 284 284 283 283 282 282 281 281 280 279 279 280 280 278 278 279 278 277 277 277 274 266 256 252 256 261 265 267 268 271 272 274 278 274 257 244 242 242 237 233 236 237 233 230 229 230 228 218 199 187 196 200 194 191 190 179 173 172 156 155 168 175 174 174 177 181 183 184 183 180 179 179 181 183 182 181 181 181 182 183 181 177 174
283 282 282 282 281 280 279 279 278 278 279 279 278 279 279 280 280 280 278 276 277 277 276 273 264 255 253 256 261 265 266 268 271 273 275 278 273 259 245 238 233 229 232 235 230 225 225 224 221 214 197 178 188 197 188 186 191 185 178 172 155 155 165 171 173 173 175 178 178 178 177 174 174 175 178 180 181 180 180 181 182 183 183 180 175
278 277 276 275 275 275 276 277 277 275 273 273 273 274 275 277 278 280 280 279 280 280 278 278 275 266 259 256 256 261 264 266 269 270 271 274 278 278 263 241 228 224 229 231 227 226 222 217 213 205 192 181 188 193 188 188 191 188 180 169 156 159 161 163 170 174 176 175 175 176 176 174 173 171 172 176 179 180 180 181 184 185 185 182 177
272 273 271 271 272 273 274 274 274 274 272 270 270 271 272 274 275 276 278 278 278 280 281 280 280 276 268 260 255 256 261 265 267 269 269 270 273 277 276 257 230 220 225 225 223 225 220 212 209 200 188 182 189 195 198 195 189 183 178 166 154 156 155 155 165 177 179 176 173 175 177 178 176 172 171 174 176 180 181 183 187 188 185 183 180
274 276 277 277 278 277 276 274 273 272 272 272 272 273 272 272 273 273 274 274 274 275 277 276 276 275 272 266 260 257 258 261 265 268 268 267 267 269 272 270 252 233 229 225 220 219 215 214 215 203 189 184 189 197 202 196 186 182 180 169 156 156 158 157 162 177 184 180 173 172 177 181 181 176 174 177 178 181 184 187 189 189 185 182 181
281 282 283 281 280 278 276 273 272 272 272 272 273 274 274 273 273 273 273 273 273 272 271 270 270 269 267 265 263 260 258 257 260 267 271 269 267 265 265 266 262 250 241 235 229 222 214 214 215 205 198 197 194 194 196 193 186 184 184 174 163 164 166 166 167 174 183 182 173 169 175 182 182 179 180 183 184 185 188 190 191 190 187 183 183
282 280 278 277 275 274 271 270 270 271 272 272 272 272 272 273 273 273 273 272 272 270 267 266 265 264 263 261 260 259 258 256 256 263 272 274 273 271 265 260 257 253 249 245 242 236 226 220 217 211 209 208 200 193 196 196 188 183 185 181 173 172 172 173 173 172 177 180 175 167 172 180 182 180 183 190 191 190 192 193 192 191 190 187 185
281 277 275 274 272 272 272 272 272 271 270 271 271 270 269 270 271 272 271 269 267 265 263 262 260 259 259 258 256 255 255 255 254 256 264 271 274 273 267 258 254 252 249 245 243 242 236 227 223 219 214 211 208 202 200 200 194 187 187 186 181 178 176 175 175 173 175 179 175 166 167 178 182 181 184 192 196 196 198 197 193 192 192 191 189
282 279 277 277 276 277 278 278 276 274 271 270 270 270 271 273 275 277 275 272 267 264 261 258 256 256 255 254 253 252 251 252 252 249 252 261 268 272 270 262 254 250 247 244 241 240 236 231 229 226 218 214 216 212 202 199 199 197 193 190 183 178 175 171 169 170 174 179 177 168 165 175 180 181 184 189 191 194 199 200 197 196 197 196 194
283 281 281 281 281 281 281 281 279 277 273 270 270 272 274 276 277 277 275 272 268 264 260 257 254 253 252 251 251 250 249 249 249 247 246 251 261 269 273 272 264 251 244 243 244 242 237 235 235 233 227 224 224 220 211 203 202 201 196 190 182 174 169 164 159 163 172 179 181 175 165 170 179 180 175 175 180 187 195 199 199 200 201 200 196
281 282 282 282 283 283 281 280 280 276 272 269 271 273 274 274 273 271 268 265 262 260 259 256 254 251 248 247 248 247 247 246 246 245 242 243 251 262 269 273 271 259 244 240 243 245 241 239 238 237 234 231 227 223 219 213 207 200 190 186 185 176 168 161 155 163 173 180 185 181 167 169 180 175 161 164 176 187 193 195 196 198 201 202 197
283 284 285 284 283 282 279 278 276 273 270 271 273 272 270 269 267 263 261 259 257 256 255 254 253 250 247 246 246 245 244 243 243 242 239 237 241 251 260 266 268 264 251 238 235 238 240 239 237 236 234 232 230 228 224 217 209 200 189 186 188 181 171 164 159 163 172 182 186 182 167 170 180 170 150 151 166 182 190 194 193 193 197 201 199
290 288 288 286 284 281 279 276 273 269 268 269 268 265 264 267 265 259 255 252 250 249 250 251 251 250 248 246 244 243 243 241 240 239 237 234 233 238 249 257 261 260 254 246 234 227 225 228 230 230 229 229 230 230 224 218 210 203 197 192 187 182 177 167 161 160 167 185 189 184 170 171 177 167 153 149 145 168 187 193 193 192 193 196 197